Regional Weather Roundup
Issued by NWS

Home | Current Version | Previous Version | Text Only | Print | Product List | Glossary Off
Versions: 1 2 3 4 5 6 7 8 9 10 11 12 13 14 15 16 17 18 19 20 21 22 23 24 25 26 27 28 29 30 31 32 33 34 35 36 37 38 39 40 41 42 43 44 45 46 47 48 49 50

000
ASUS43 KLOT 271209
RWRIL

ILLINOIS REGIONAL WEATHER ROUNDUP
NATIONAL WEATHER SERVICE CHICAGO/ROMEOVILLE IL
700 AM CDT SAT MAY 27 2017

NOTE: "FAIR" INDICATES FEW OR NO CLOUDS BELOW 12,000 FEET WITH NO
SIGNIFICANT WEATHER AND/OR OBSTRUCTIONS TO VISIBILITY.

* THESE STATIONS ARE NOT UNDER NWS QUALITY CONTROL. THEY ALSO MAY NOT
  REPORT WEATHER SUCH AS PRECIPITATION OR FOG.

ILZ001-002-007-009-015-016-024-271300-
NORTHWEST ILLINOIS

CITY           SKY/WX    TMP DP  RH WIND       PRES   REMARKS
MOLINE         FOG       58  56  93 CALM      29.91R VSB 1/4
6HR MIN TEMP:  57; 6HR MAX TEMP:  61;

STERLING*      CLOUDY    55  55 100 CALM      29.93R FOG
SAVANNA*       SUNNY     54  53  99 CALM      29.92S FOG
$$

ILZ003-004-008-010-011-017-018-271300-
NORTH CENTRAL ILLINOIS

CITY           SKY/WX    TMP DP  RH WIND       PRES   REMARKS
ROCKFORD       SUNNY     55  53  93 NE3       29.94R FOG
6HR MIN TEMP:  50; 6HR MAX TEMP:  55;

FREEPORT*      SUNNY     52  51  99 CALM      29.94S FOG
ROCHELLE*      MOSUNNY   54  53  98 CALM      29.93R FOG
DE KALB*       SUNNY     55  55  99 CALM      29.93R FOG
PERU*          CLOUDY    57  54  92 NE7       29.92R FOG
$$

ILZ005-006-012>014-019>023-271300-
NORTHEAST ILLINOIS

CITY           SKY/WX    TMP DP  RH WIND       PRES   REMARKS
CHICAGO-OHARE  MOSUNNY   55  51  86 N5        29.91R
6HR MIN TEMP:  52; 6HR MAX TEMP:  57;

CHICAGO-MIDWAY PTSUNNY   58  52  80 N6        29.91R
6HR MIN TEMP:  56; 6HR MAX TEMP:  59;

AURORA         CLOUDY    57  55  93 CALM      29.92R
6HR MIN TEMP:  53; 6HR MAX TEMP:  57;

LANSING*       PTSUNNY   56  55  96 N3        29.90R
JOLIET*        CLOUDY    57  56  96 CALM      29.92R FOG
WAUKEGAN       SUNNY     54  53  97 CALM      29.93R FOG
6HR MIN TEMP:  48; 6HR MAX TEMP:  54;

DUPAGE AIRPORT CLOUDY    55  54  96 N3        29.92R
6HR MIN TEMP:  49; 6HR MAX TEMP:  56;

KANKAKEE*      FOG       59  58  97 CALM      29.90R VSB 1
WHEELING       PTSUNNY   52  52 100 N3        29.93R
6HR MIN TEMP:  50; 6HR MAX TEMP:  55;

MORRIS*        CLOUDY    55  54  95 CALM      29.91R FOG
ROMEOVILLE*    CLOUDY    56  56 100 CALM      29.92R FOG
$$

LMZ740>746-271300-
SOUTHERN LAKE MICHIGAN

STATION/POSITION SKY/WX   TEMP    WIND        PRES    VSBY  WAVE
                          AIR SEA DIR/SP/G                  HT/PER
                          (F)     (DEG/KT/KT) (MB)    (MI)  (FT/S)
SOUTHERN BUOY              48 46   10/  4/  4 1012.6          0
WILMETTE HARBOR            50 52                N/A           1
HARRISON CRIB              52     340/  6/  6   N/A
BURNHAM HARBOR             55     330/  6/  8   N/A
CALUMET HARBOR             53     350/  5/  7 1011.8R
BURNS HARBOR               55      40/  6/  7 1012.5R
MICHIGAN CITY              54      30/  7/  8   N/A
MICHIGAN CITY 6N           52 53   20/  8/ 10   N/A           1/ 2
ST. JOSEPH                 57 58   60/  8/ 10 1012.5          1
$$

ILZ025>027-034>036-040-047-049-050-058-095>099-271300-
WEST-CENTRAL ILLINOIS

CITY           SKY/WX    TMP DP  RH WIND       PRES   REMARKS
QUINCY         FOG       59  59 100 E3        29.88R VSB<1/4
GALESBURG*     FOG       57  57 100 N3        29.91R VSB 1/4
MACOMB*        FOG       57  57 100 NE7       29.92S VSB<1/4
JACKSONVILLE*  DRZL/FOG  60  59  99 NE9       29.89R VSB<1/4
PITTSFIELD*    CLOUDY    61  61  99 NE3       29.90R FOG
$$

ILZ028>032-037-038-041>044-048-051>054-059>061-271300-
CENTRAL ILLINOIS

CITY           SKY/WX    TMP DP  RH WIND       PRES   REMARKS
PONTIAC        FOG       59  58  98 N6        29.92R VSB 1/2
BLOOMINGTON    CLOUDY    59  58  96 N9        29.91R FOG
DECATUR        CLOUDY    63  62  97 N5        29.90R
PEORIA         FOG       59  59 100 NE6       29.91R VSB 3/4
6HR MIN TEMP:  59; 6HR MAX TEMP:  62;

LACON*         CLOUDY    58  58 100 NW3       29.90S FOG
LINCOLN*       CLOUDY    62  62  98 CALM      29.90S FOG
SPRINGFIELD    CLOUDY    62  62 100 NE9       29.90R FOG
6HR MIN TEMP:  61; 6HR MAX TEMP:  68;

TAYLORVILLE    FOG       60  60 100 N14       29.88S VSB<1/4
6HR MIN TEMP:  60; 6HR MAX TEMP:  68;

$$

ILZ033-039-045-046-055>057-062-063-271300-
EAST-CENTRAL ILLINOIS

CITY           SKY/WX    TMP DP  RH WIND       PRES   REMARKS
CHAMPAIGN      CLOUDY    63  61  93 N6        29.89R FOG
RANTOUL*       FOG       61  61  99 N8        29.90R VSB 3/4
MATTOON        FOG       62  62 100 N10       29.88R VSB<1/4
PARIS*         CLOUDY    63  63 100 N3        29.89R FOG
$$

ILZ079-100>102-271300-
SOUTHWEST ILLINOIS

CITY           SKY/WX    TMP DP  RH WIND       PRES   REMARKS
ALTON          MOSUNNY   64  63  94 VRB3      29.89R
CAHOKIA*       SUNNY     69  66  90 CALM      29.86S FOG
SPARTA*        PTSUNNY   66  65  98 CALM      29.87S FOG
$$

ILZ064>066-069>071-074>076-080>082-084>086-088>090-092>094-271300-
SOUTH-CENTRAL ILLINOIS

CITY           SKY/WX    TMP DP  RH WIND       PRES   REMARKS
CARBONDALE     CLOUDY    68  68 100 CALM      29.87R FOG
6HR MIN TEMP:  66; 6HR MAX TEMP:  71;

CAIRO*         CLOUDY    71  69  95 S14G21    29.83F
EFFINGHAM*     SUNNY     66  66 100 CALM      29.89R FOG
MARION         CLOUDY    68  66  94 E7        29.87R FOG
MT. VERNON       N/A     66  66 100 CALM      29.87S FOG
CENTRALIA*     MOSUNNY   68  68  99 CALM      29.87S FOG
SALEM*         MOSUNNY   68  67  94 CALM      29.87S FOG
METROPOLIS*    LGT RAIN  70  69  96 SE10      29.82F
$$

ILZ067-068-072-073-078-083-087-091-271300-
SOUTHEAST ILLINOIS

CITY           SKY/WX    TMP DP  RH WIND       PRES   REMARKS
LAWRENCEVILLE  CLOUDY    69  67  93 CALM      29.88R FOG
FLORA*         MOSUNNY   69  67  94 CALM      29.88S FOG
FAIRFIELD*     PTSUNNY   68  68  99 CALM      29.87S FOG
HARRISBURG*      N/A     67  67 100 CALM      29.88S FOG
ROBINSON*      CLOUDY    67  66  96 N3        29.87S FOG
CARMI*           N/A     67  67 100 CALM      29.88R FOG
$$

ABBREVIATIONS USED IN REMARKS
   TC - TEMPERATURE IN CELSIUS
  WCI - WIND CHILL INDEX
   HX - HEAT INDEX
  VSB - VISIBILITY
$$




USA.gov is the U.S. government's official web portal to all federal, state and local government web resources and services.